Location: Newark
(55.1225°N, 33.2808°E)
Time: 15:08:05
(UTC+00:00)

ISS - Pass Details

Date: 22 September 2019
Orbit: 411 x 421 km, 51.6° (Epoch: 16 October)

Event Time Altitude Azimuth Distance (km) Brightness Sun altitude
Rises 17:50:33 0° 234° (SW) 2,339 0.4 -17.8°
Reaches altitude 10° 17:52:46 10° 224° (SW) 1,479 -0.8 -18.1°
Enters shadow 17:54:42 25° 195° (SSW) 879 -2.3 -18.3°
